Temp
-19 -20 -20 -20 -19 -20 -20 -19 -20 -18 -20 -18 -20 -20 -19 -19 -19 -19 -20 -20 -20 -20 -20 -21 -20 -20 -20 -21 -21 -21 -22 -22 -23 -22 -23 -23 -23 -23 -23 -22 -20 -18 -14 -12
-20 -21 -21 -21 -20 -20 -19 -20 -20 -21 -19 -21 -21 -20 -20 -21 -20 -20 -21 -21 -21 -22 -22 -22 -22 -22 -21 -22 -22 -23 -23 -23 -23 -23 -23 -23 -23 -24 -24 -23 -22 -20 -17 -14
-22 -22 -21 -20 -19 -20 -20 -20 -21 -21 -21 -21 -22 -22 -21 -21 -22 -22 -22 -22 -22 -23 -23 -23 -23 -23 -23 -23 -23 -24 -24 -24 -24 -24 -24 -24 -24 -24 -24 -24 -23 -23 -20 -16
-22 -22 -22 -20 -20 -20 -21 -21 -21 -21 -21 -23 -23 -23 -22 -23 -23 -23 -23 -23 -24 -24 -24 -24 -24 -24 -24 -24 -24 -25 -25 -25 -25 -25 -25 -24 -25 -24 -24 -24 -24 -23 -23 -20
-23 -23 -22 -21 -21 -22 -22 -21 -21 -22 -23 -23 -24 -25 -23 -24 -24 -24 -24 -24 -25 -25 -25 -25 -25 -25 -25 -25 -26 -26 -26 -26 -26 -26 -25 -25 -25 -25 -25 -25 -24 -24 -23 -22
-23 -23 -23 -21 -21 -22 -23 -22 -22 -24 -24 -25 -25 -25 -25 -25 -25 -25 -25 -26 -26 -26 -26 -26 -25 -25 -26 -26 -27 -27 -27 -27 -27 -26 -26 -26 -26 -26 -25 -25 -25 -24 -24 -24
-23 -24 -25 -22 -23 -24 -25 -23 -26 -25 -26 -26 -26 -27 -27 -27 -27 -27 -26 -26 -26 -26 -26 -26 -26 -27 -27 -27 -27 -28 -27 -28 -28 -27 -27 -27 -26 -26 -26 -25 -25 -25 -25 -24
-24 -25 -24 -23 -25 -25 -26 -26 -26 -27 -27 -27 -27 -27 -27 -27 -27 -27 -27 -27 -27 -27 -27 -27 -27 -27 -27 -28 -28 -28 -28 -28 -28 -28 -27 -27 -27 -27 -27 -26 -25 -25 -25 -25
-26 -25 -25 -25 -26 -27 -27 -27 -27 -27 -27 -28 -28 -28 -28 -28 -28 -28 -28 -28 -28 -28 -28 -28 -28 -28 -28 -28 -28 -29 -29 -29 -29 -28 -28 -28 -27 -27 -27 -26 -26 -26 -26 -26
-26 -25 -27 -27 -27 -27 -27 -27 -28 -28 -28 -29 -29 -29 -28 -28 -28 -28 -28 -28 -28 -28 -29 -29 -29 -29 -29 -29 -29 -29 -29 -29 -29 -29 -28 -28 -28 -28 -27 -27 -26 -26 -27 -26
-26 -26 -27 -28 -28 -28 -28 -28 -28 -29 -29 -29 -29 -29 -29 -29 -29 -29 -29 -29 -29 -29 -29 -29 -29 -29 -29 -30 -30 -30 -30 -30 -30 -29 -29 -29 -29 -28 -27 -27 -27 -26 -27 -27
-27 -27 -27 -28 -28 -28 -29 -29 -29 -29 -29 -29 -29 -29 -29 -29 -29 -29 -29 -29 -29 -29 -30 -30 -30 -30 -30 -30 -30 -30 -30 -30 -30 -30 -30 -29 -29 -28 -27 -27 -27 -27 -28 -28
-28 -27 -28 -29 -29 -29 -29 -29 -30 -30 -30 -30 -30 -30 -30 -30 -30 -30 -30 -30 -30 -30 -30 -30 -30 -30 -30 -30 -30 -31 -31 -31 -30 -30 -30 -29 -29 -28 -28 -28 -27 -28 -28 -28
-30 -30 -30 -30 -30 -31 -30 -30 -30 -30 -30 -30 -30 -30 -30 -30 -30 -30 -30 -30 -30 -31 -31 -31 -31 -31 -31 -31 -31 -31 -31 -31 -31 -31 -31 -30 -29 -29 -28 -28 -28 -28 -29 -29
-31 -31 -31 -31 -31 -31 -31 -31 -31 -30 -31 -31 -31 -30 -30 -30 -30 -31 -31 -31 -31 -31 -31 -31 -31 -32 -32 -32 -32 -32 -32 -32 -32 -32 -32 -31 -31 -30 -29 -29 -29 -28 -29 -29
-31 -31 -31 -31 -31 -31 -31 -32 -32 -32 -31 -31 -31 -31 -31 -31 -32 -32 -32 -31 -32 -32 -32 -32 -33 -33 -33 -33 -33 -34 -34 -34 -34 -33 -33 -32 -32 -31 -30 -29 -29 -29 -29 -29
-32 -32 -32 -32 -32 -32 -32 -32 -32 -32 -32 -32 -32 -33 -33 -32 -32 -32 -32 -32 -32 -33 -33 -33 -34 -34 -34 -34 -34 -34 -35 -35 -35 -34 -34 -34 -33 -32 -32 -31 -30 -29 -29 -29
-32 -33 -33 -33 -33 -33 -32 -32 -32 -32 -33 -33 -33 -33 -33 -33 -33 -33 -33 -33 -33 -34 -35 -35 -35 -35 -36 -36 -35 -35 -35 -35 -35 -35 -35 -34 -34 -33 -33 -32 -31 -30 -30 -29
-32 -32 -32 -32 -33 -33 -33 -33 -33 -33 -33 -34 -34 -34 -34 -34 -34 -34 -34 -35 -35 -35 -35 -35 -36 -36 -36 -36 -36 -35 -35 -35 -35 -35 -35 -35 -35 -34 -34 -32 -32 -31 -30 -29
-33 -33 -33 -33 -34 -34 -34 -34 -34 -34 -35 -35 -34 -35 -35 -35 -35 -35 -35 -36 -36 -36 -36 -36 -36 -36 -35 -35 -35 -35 -36 -36 -36 -35 -35 -35 -35 -35 -34 -33 -32 -31 -30 -29
-34 -34 -34 -34 -34 -35 -35 -35 -35 -35 -35 -35 -36 -36 -36 -36 -36 -36 -37 -37 -37 -37 -37 -36 -36 -35 -36 -37 -37 -37 -37 -37 -36 -35 -35 -35 -35 -35 -34 -33 -33 -31 -30 -29
-35 -35 -35 -36 -36 -36 -36 -36 -36 -36 -36 -37 -37 -37 -37 -37 -37 -37 -38 -38 -37 -37 -37 -37 -36 -38 -38 -37 -38 -38 -37 -37 -37 -36 -35 -35 -35 -35 -34 -34 -33 -32 -30 -29
-36 -36 -36 -36 -36 -37 -37 -37 -37 -37 -38 -38 -38 -38 -38 -38 -38 -38 -38 -38 -38 -37 -37 -37 -38 -39 -39 -38 -38 -38 -38 -38 -37 -37 -36 -35 -36 -35 -34 -33 -33 -31 -30 -29
-37 -37 -37 -37 -37 -37 -38 -38 -38 -38 -39 -39 -39 -39 -39 -39 -39 -39 -39 -38 -38 -38 -38 -39 -39 -39 -39 -39 -39 -39 -38 -38 -38 -37 -36 -36 -36 -35 -34 -33 -33 -31 -30 -29
-37 -38 -38 -38 -38 -39 -39 -39 -39 -39 -40 -40 -40 -40 -40 -40 -40 -39 -39 -39 -38 -38 -38 -39 -40 -40 -39 -39 -39 -39 -39 -38 -38 -37 -36 -36 -35 -35 -34 -33 -32 -31 -30 -29
-38 -39 -39 -39 -40 -40 -40 -40 -40 -40 -41 -41 -41 -41 -41 -40 -40 -40 -39 -39 -39 -39 -39 -40 -40 -40 -40 -40 -40 -39 -39 -39 -38 -37 -36 -36 -36 -35 -34 -33 -32 -31 -30 -28
-40 -40 -40 -40 -40 -41 -41 -41 -41 -41 -41 -41 -41 -41 -41 -41 -41 -40 -40 -39 -39 -39 -40 -40 -40 -41 -40 -40 -40 -40 -40 -39 -39 -38 -37 -36 -35 -35 -34 -33 -32 -31 -30 -28
Height
5598 5595 5591 5591 5589 5585 5577 5580 5567 5576 5560 5573 5562 5548 5542 5543 5544 5542 5539 5534 5530 5526 5522 5518 5514 5511 5507 5503 5500 5497 5492 5490 5489 5486 5484 5481 5479 5478 5477 5478 5480 5488 5505 5528
5581 5576 5574 5575 5576 5572 5567 5562 5555 5554 5553 5555 5542 5538 5533 5527 5521 5522 5519 5516 5513 5507 5503 5500 5497 5493 5490 5486 5482 5480 5475 5471 5471 5469 5467 5465 5463 5462 5461 5461 5462 5465 5477 5498
5562 5555 5553 5554 5568 5559 5551 5547 5541 5532 5538 5535 5526 5516 5518 5514 5505 5503 5502 5499 5497 5490 5485 5481 5478 5475 5473 5469 5465 5461 5458 5454 5452 5452 5451 5448 5446 5445 5445 5444 5445 5448 5453 5468
5543 5537 5528 5548 5544 5538 5533 5529 5521 5516 5517 5509 5504 5502 5502 5497 5490 5488 5485 5479 5476 5473 5468 5464 5460 5457 5454 5451 5447 5444 5440 5438 5435 5434 5433 5431 5429 5427 5427 5427 5428 5429 5434 5443
5520 5517 5514 5529 5533 5518 5510 5514 5511 5498 5498 5492 5485 5473 5491 5477 5472 5471 5468 5463 5458 5454 5451 5447 5443 5440 5435 5432 5431 5429 5425 5421 5417 5416 5415 5413 5411 5409 5408 5410 5411 5411 5415 5422
5505 5494 5489 5512 5514 5502 5487 5481 5497 5485 5480 5475 5468 5459 5466 5462 5458 5453 5450 5446 5442 5438 5435 5431 5427 5423 5419 5415 5414 5412 5409 5405 5401 5398 5396 5395 5393 5391 5390 5391 5393 5394 5396 5402
5486 5471 5465 5495 5484 5479 5467 5473 5466 5462 5462 5457 5449 5444 5442 5440 5438 5436 5433 5430 5427 5423 5418 5414 5411 5405 5400 5397 5395 5394 5390 5386 5383 5379 5378 5376 5376 5373 5372 5372 5374 5376 5380 5384
5465 5457 5445 5469 5460 5457 5458 5449 5446 5443 5441 5436 5432 5427 5424 5420 5418 5416 5413 5411 5408 5404 5400 5397 5393 5388 5384 5377 5376 5373 5370 5367 5364 5361 5359 5357 5357 5355 5353 5354 5355 5357 5361 5366
5443 5437 5441 5439 5440 5438 5435 5432 5428 5424 5422 5417 5415 5411 5406 5402 5400 5396 5394 5392 5389 5386 5381 5377 5374 5369 5364 5358 5356 5352 5350 5348 5345 5343 5340 5339 5338 5336 5335 5335 5336 5339 5342 5349
5429 5426 5423 5422 5420 5419 5414 5411 5407 5405 5401 5397 5394 5391 5388 5385 5381 5377 5375 5371 5368 5364 5361 5356 5353 5348 5343 5339 5336 5333 5330 5327 5325 5324 5321 5319 5319 5317 5317 5317 5318 5321 5325 5331
5406 5405 5403 5402 5401 5399 5396 5390 5386 5383 5381 5378 5375 5371 5368 5365 5361 5358 5355 5352 5347 5344 5339 5335 5331 5326 5322 5320 5317 5313 5309 5307 5305 5303 5301 5300 5299 5298 5299 5299 5301 5304 5308 5314
5386 5386 5382 5378 5377 5374 5372 5369 5366 5363 5359 5357 5354 5351 5347 5345 5342 5339 5335 5331 5327 5322 5318 5313 5309 5304 5300 5299 5296 5292 5289 5285 5282 5281 5280 5280 5280 5280 5279 5282 5283 5287 5292 5297
5367 5365 5361 5355 5354 5353 5349 5348 5346 5342 5339 5336 5333 5330 5329 5326 5322 5318 5314 5310 5306 5301 5296 5291 5287 5282 5276 5276 5273 5269 5266 5263 5260 5258 5258 5259 5259 5260 5263 5263 5268 5271 5277 5283
5343 5339 5337 5335 5332 5331 5330 5328 5325 5322 5320 5318 5315 5312 5309 5305 5302 5297 5293 5288 5284 5279 5274 5270 5266 5260 5252 5251 5248 5244 5242 5240 5238 5237 5237 5238 5239 5241 5243 5248 5250 5257 5262 5270
5320 5318 5316 5314 5313 5312 5310 5309 5306 5304 5302 5299 5296 5292 5290 5285 5281 5276 5272 5267 5263 5258 5251 5247 5243 5235 5229 5226 5223 5221 5218 5217 5216 5216 5216 5218 5219 5222 5225 5229 5235 5240 5249 5257
5300 5299 5298 5296 5295 5293 5292 5290 5287 5285 5282 5278 5274 5271 5268 5264 5261 5257 5252 5247 5242 5235 5228 5223 5219 5211 5205 5202 5201 5200 5197 5196 5196 5196 5197 5199 5201 5204 5207 5212 5219 5226 5234 5243
5282 5280 5278 5276 5275 5274 5273 5271 5269 5265 5261 5259 5257 5253 5249 5245 5240 5235 5230 5225 5219 5212 5204 5199 5195 5189 5185 5183 5181 5179 5177 5177 5177 5178 5179 5181 5184 5186 5190 5195 5203 5212 5221 5232
5266 5265 5263 5261 5259 5257 5255 5254 5251 5248 5245 5242 5239 5235 5231 5226 5220 5214 5208 5201 5195 5189 5182 5179 5175 5169 5166 5162 5159 5159 5159 5159 5160 5161 5162 5165 5168 5171 5175 5181 5189 5198 5208 5219
5252 5250 5248 5246 5245 5243 5241 5239 5236 5233 5230 5226 5223 5218 5213 5207 5200 5192 5186 5180 5175 5170 5164 5161 5156 5151 5146 5143 5141 5141 5142 5143 5144 5145 5147 5150 5154 5157 5162 5168 5176 5185 5197 5209
5239 5238 5236 5234 5233 5231 5228 5225 5222 5219 5215 5211 5206 5201 5195 5188 5181 5174 5168 5163 5158 5152 5147 5142 5138 5133 5130 5126 5124 5124 5125 5125 5126 5129 5132 5137 5141 5144 5150 5156 5164 5175 5187 5200
5228 5227 5225 5223 5221 5218 5215 5212 5208 5204 5200 5196 5190 5184 5178 5171 5164 5157 5152 5147 5142 5136 5132 5126 5121 5117 5114 5112 5111 5110 5108 5108 5110 5115 5120 5124 5129 5134 5139 5147 5154 5164 5178 5191
5218 5216 5214 5212 5209 5206 5203 5199 5195 5191 5186 5181 5175 5169 5162 5156 5149 5144 5139 5133 5128 5123 5118 5111 5108 5105 5101 5099 5099 5094 5095 5097 5100 5104 5108 5113 5119 5124 5130 5138 5147 5157 5169 5183
5207 5205 5203 5201 5198 5195 5191 5186 5182 5177 5172 5167 5161 5155 5149 5143 5137 5131 5127 5122 5115 5111 5105 5099 5096 5093 5090 5089 5087 5087 5087 5089 5091 5094 5099 5105 5111 5117 5123 5131 5141 5153 5163 5175
5197 5195 5192 5189 5186 5182 5178 5173 5169 5164 5159 5154 5149 5143 5137 5132 5126 5120 5116 5111 5105 5099 5094 5089 5086 5083 5081 5080 5079 5079 5080 5081 5084 5088 5092 5098 5104 5110 5117 5125 5136 5147 5159 5170
5186 5183 5180 5177 5173 5169 5165 5162 5158 5153 5148 5143 5138 5133 5127 5122 5117 5112 5107 5102 5096 5090 5084 5080 5077 5075 5073 5072 5072 5073 5074 5076 5079 5083 5088 5094 5099 5105 5112 5122 5132 5144 5155 5167
5173 5171 5168 5165 5162 5158 5155 5151 5147 5143 5138 5134 5129 5124 5119 5113 5109 5104 5099 5094 5088 5082 5077 5073 5070 5068 5067 5067 5067 5068 5070 5072 5076 5080 5085 5091 5096 5102 5110 5120 5130 5143 5153 5164
5161 5159 5156 5154 5151 5148 5146 5142 5138 5134 5130 5125 5120 5115 5111 5106 5102 5097 5093 5088 5082 5076 5071 5067 5065 5064 5064 5064 5064 5066 5068 5071 5074 5078 5084 5089 5095 5101 5108 5119 5129 5140 5150 5162
Wind_Speed
50 48 48 47 50 52 57 53 59 55 59 53 55 61 67 65 64 63 59 60 62 63 61 60 60 60 59 60 62 59 55 53 50 51 50 50 48 48 49 53 68 102 122 134
51 52 51 51 53 54 57 57 60 57 59 51 58 62 64 66 67 64 63 64 64 63 62 61 59 58 60 62 62 58 54 54 53 53 52 51 48 49 49 50 56 73 108 128
54 58 59 63 53 56 58 59 62 65 60 58 61 63 64 66 65 65 65 66 66 64 62 60 58 60 62 62 60 56 54 56 55 52 52 52 50 48 50 50 50 63 82 115
62 64 69 60 60 63 64 66 69 69 66 64 65 66 66 64 65 65 66 70 67 60 59 59 59 60 60 59 58 53 55 55 55 53 53 54 52 49 51 50 50 55 67 90
68 70 72 65 62 67 70 69 69 68 64 65 64 68 62 64 67 66 70 68 61 59 57 56 56 58 59 59 52 52 54 56 56 56 55 54 53 49 51 51 50 51 62 71
70 74 75 70 66 70 70 75 65 60 64 65 67 71 64 63 63 65 64 58 56 57 58 58 57 58 59 58 54 54 57 59 61 60 57 53 51 50 52 52 51 51 57 64
73 76 76 72 72 65 68 69 60 67 66 66 64 61 60 59 59 60 60 61 59 59 58 58 59 60 59 59 60 57 58 61 61 57 52 50 48 51 53 53 52 49 54 61
77 77 83 74 73 72 62 63 66 66 62 60 60 62 63 63 60 57 55 55 57 58 56 56 59 60 62 61 63 60 59 58 56 53 51 49 50 53 54 52 53 50 53 58
76 77 76 78 74 66 67 67 63 60 61 61 61 61 59 60 59 56 55 55 56 56 56 56 59 60 60 59 61 59 57 58 56 53 51 51 53 54 53 52 53 51 54 56
72 85 80 78 71 69 71 72 74 75 71 65 64 65 62 64 62 60 61 57 56 56 57 58 58 58 58 60 59 57 58 57 56 56 56 57 56 53 51 51 52 51 53 55
87 74 73 69 72 76 65 69 72 71 76 66 68 69 68 65 62 59 58 58 57 56 59 61 61 62 62 62 58 61 61 62 61 59 55 53 52 51 50 50 50 50 52 54
69 64 70 84 90 83 81 76 75 76 73 70 69 60 57 58 55 56 57 58 61 60 61 63 64 67 67 64 63 65 66 64 61 57 55 53 51 50 51 49 49 48 52 53
79 85 93 90 85 80 81 78 74 71 66 57 55 58 61 59 59 59 61 61 60 61 65 66 66 68 69 68 67 67 65 63 61 58 55 52 51 50 49 50 46 48 52 50
82 87 87 90 87 81 72 62 59 57 58 59 64 66 69 65 65 65 64 61 63 65 68 69 68 69 72 70 68 66 64 61 60 57 54 52 51 50 49 47 48 46 53 47
70 70 67 65 63 55 59 53 58 62 67 70 69 65 63 65 68 66 64 62 65 68 69 68 68 69 71 69 66 63 60 58 56 54 51 49 49 49 49 48 45 47 54 47
71 70 69 68 67 63 58 63 65 66 67 63 62 60 60 62 63 63 64 63 66 68 69 68 66 67 65 63 60 57 56 55 53 51 49 47 47 47 48 48 45 50 56 49
62 56 51 53 54 54 53 55 57 55 53 55 56 56 55 59 60 62 63 65 67 67 66 64 61 60 60 59 57 55 53 50 49 47 45 44 44 45 46 46 46 51 58 51
46 44 43 44 44 47 51 53 50 47 48 49 52 53 56 58 61 63 64 65 64 60 58 57 57 57 54 53 52 51 49 46 45 43 43 41 41 43 44 44 46 52 57 51
47 47 46 45 44 42 41 42 42 45 48 49 51 54 57 59 61 62 61 58 55 54 55 52 50 50 51 51 50 48 45 43 42 41 42 40 39 41 41 43 46 51 56 51
35 35 35 35 36 38 40 42 43 44 46 49 52 54 57 58 58 57 53 51 50 50 47 47 47 48 48 49 47 45 41 40 40 41 39 38 37 39 39 42 45 50 54 51
34 32 34 36 38 38 39 40 43 46 49 51 52 54 55 54 52 50 48 46 44 44 43 45 45 45 44 41 37 35 36 37 37 36 37 36 36 37 38 40 43 48 52 50
35 35 34 34 35 38 40 43 46 47 48 50 51 52 51 49 46 43 41 40 40 41 41 43 42 37 37 34 29 34 34 32 31 32 34 34 34 35 37 40 43 49 50 51
32 32 34 36 39 43 45 45 45 45 46 47 48 47 46 43 39 37 35 37 39 37 37 38 34 32 32 29 28 28 28 27 26 28 31 32 32 34 37 39 44 50 49 51
34 36 39 41 44 44 43 42 42 43 44 44 43 42 40 36 33 33 34 34 35 36 34 31 30 27 27 26 23 23 23 22 23 26 29 30 31 34 36 39 46 48 47 51
38 40 42 42 40 39 38 39 39 40 40 39 38 37 35 32 31 30 31 33 34 34 31 28 25 24 23 21 19 18 18 18 20 23 27 28 30 33 35 41 47 47 47 50
40 38 36 34 34 34 34 35 36 36 35 35 34 33 31 30 29 29 30 31 33 32 28 24 21 19 17 16 15 14 14 16 18 21 24 27 29 32 36 43 45 45 46 49
32 31 31 31 32 32 32 33 33 33 33 32 31 30 29 28 27 28 28 30 31 28 24 19 15 14 12 11 10 11 12 14 16 19 22 26 29 32 38 43 43 42 44 48
Wind_Direction
277 277 281 281 282 285 287 296 291 297 296 302 296 293 296 297 297 298 297 297 297 297 295 292 291 291 290 291 291 290 286 279 278 271 270 273 272 269 262 259 241 229 226 227
275 281 282 282 280 288 292 292 293 295 292 299 290 291 293 295 297 297 297 296 295 293 290 288 287 287 289 289 289 288 282 277 275 273 271 272 274 267 267 262 253 237 227 224
285 284 283 278 289 287 288 293 295 291 296 292 290 292 292 292 291 292 293 293 292 288 286 284 285 287 288 289 290 287 280 275 275 274 274 272 275 270 265 262 262 246 232 224
285 284 281 289 289 292 292 291 293 294 296 293 293 289 291 288 286 289 292 291 289 284 282 284 286 288 291 292 291 285 277 276 277 278 277 275 276 271 265 263 263 254 240 229
281 282 285 287 293 290 291 291 293 291 292 291 291 288 292 284 285 290 288 287 285 285 286 287 288 291 296 297 293 284 280 280 281 281 280 278 277 274 266 264 261 260 244 233
281 283 284 291 291 291 294 291 294 288 289 292 290 288 287 283 285 286 284 285 286 287 288 288 289 292 296 299 293 285 282 282 283 282 280 278 275 273 268 264 260 260 248 237
284 285 285 294 294 297 287 301 287 289 291 291 286 286 288 287 283 280 279 282 286 287 286 288 291 294 296 297 296 288 284 285 285 284 280 276 273 272 268 265 260 259 250 239
285 287 286 294 289 291 292 284 286 290 289 283 286 290 292 289 287 281 281 284 285 285 286 288 290 293 295 296 297 288 285 288 287 282 276 269 273 270 270 265 261 258 248 239
281 284 287 287 291 286 282 282 289 281 283 288 290 290 284 287 286 282 282 288 289 289 289 288 288 291 291 294 293 288 287 289 283 279 274 271 273 272 269 264 260 257 246 239
276 285 283 280 282 282 287 286 285 283 286 291 291 290 284 286 285 282 284 289 290 287 284 283 284 287 289 290 290 290 291 284 281 279 276 274 274 270 265 262 260 257 243 239
277 277 277 276 280 280 278 280 283 285 287 287 287 286 285 285 283 285 287 289 288 284 280 283 286 289 290 289 289 290 288 285 284 282 278 274 270 267 265 262 259 256 242 238
262 262 267 278 282 279 274 281 283 285 286 284 286 281 282 283 284 287 288 288 285 282 283 285 287 289 288 287 287 288 288 285 283 280 277 274 270 268 265 259 257 252 238 238
259 267 272 275 276 271 278 284 283 280 279 277 281 286 289 290 287 289 286 284 283 284 285 285 287 287 285 286 288 287 286 285 283 280 277 273 270 265 260 258 251 247 233 235
269 270 271 275 277 278 280 276 273 272 274 284 288 289 290 290 289 287 284 283 286 287 286 287 287 286 286 288 288 287 285 283 280 277 274 271 268 263 257 251 249 239 229 232
271 272 272 272 272 269 269 273 270 274 280 287 287 289 284 283 284 282 281 285 287 287 287 287 288 286 287 288 286 284 282 279 276 274 271 267 264 260 254 248 241 237 222 229
271 273 275 278 279 282 273 273 278 282 283 286 286 281 282 282 281 281 285 288 288 289 289 288 288 286 286 284 283 281 279 276 274 271 269 265 261 256 251 245 236 230 221 223
277 275 274 276 275 276 275 276 279 277 281 284 281 282 283 283 286 288 290 291 291 290 289 288 287 285 284 283 282 279 276 273 271 269 265 261 257 251 247 241 231 224 220 219
271 270 268 270 273 273 274 274 274 278 281 282 284 287 289 291 292 292 294 294 293 290 288 287 286 285 284 281 278 276 274 271 268 264 261 256 252 248 243 236 227 221 217 216
269 271 273 273 273 273 274 276 279 283 287 289 290 292 293 294 295 297 296 293 291 289 289 288 286 284 282 281 279 277 275 270 265 259 256 252 247 243 238 231 223 217 214 212
272 270 270 273 275 276 280 284 286 288 290 292 293 294 296 297 298 296 294 293 292 291 290 288 287 285 284 281 280 279 276 270 262 254 250 247 242 238 233 225 219 212 208 209
272 273 275 277 280 282 285 288 291 292 293 294 296 298 299 299 298 296 295 295 294 292 292 291 290 289 287 283 281 278 269 262 256 249 243 240 236 233 227 219 215 208 204 202
277 277 278 281 286 289 291 292 292 294 295 297 298 299 300 300 298 298 298 297 296 295 295 292 293 291 285 283 277 267 264 261 253 242 235 233 229 226 221 214 208 202 203 201
274 279 283 287 290 292 293 293 294 296 297 298 299 300 301 301 301 300 300 301 302 301 298 295 293 287 284 282 274 270 263 257 246 234 228 225 223 219 215 209 201 196 201 199
278 281 284 287 290 292 293 295 297 298 299 299 300 302 304 304 303 302 304 308 308 307 304 297 291 286 282 280 275 266 259 250 239 228 221 218 216 213 209 202 195 192 197 195
281 284 288 290 291 293 295 296 297 298 300 301 303 306 307 306 305 305 308 312 314 313 307 299 292 287 281 278 271 263 252 240 231 221 215 212 210 208 203 195 189 192 194 191
286 287 289 291 293 295 296 297 299 301 303 304 306 308 309 309 308 309 312 316 318 317 310 301 293 286 277 274 266 253 240 230 222 214 208 205 206 204 197 189 185 190 191 187
286 288 289 290 292 294 296 299 300 302 304 306 308 311 313 312 311 312 315 319 322 319 313 303 291 279 272 262 246 232 224 218 211 206 202 201 201 198 191 186 185 187 187 185